Simultaneous Nadir Overpasses (SNOs) Predictions

Prediction of SNOs between AQUA and METOP-A Satellite Orbit:

Table of predicted SNOs for the next 14.0 days since TLE Epoch: 11/16/2019
Index Date (AQUA) Time (AQUA) Lat,Lon (AQUA) SZA (AQUA ) Date (METOP-A) Time (METOP-A) Lat,Lon (METOP-A) SZA (METOP-A ) Distance(km) Time Diff (sec)
1 11/18/2019 03:40:33 75.62, 114.68 94.76 11/18/2019 03:39:45 75.62, 114.72 94.76 1.13 48
2 11/18/2019 04:30:00 -75.66, -77.81 85.19 11/18/2019 04:30:26 -75.64, -77.88 85.21 2.99 26
3 11/20/2019 23:14:47 75.62,-178.89 95.42 11/20/2019 23:14:07 75.64,-178.84 95.44 3.05 40
4 11/21/2019 00:04:14 -75.66, -11.38 84.53 11/21/2019 00:04:48 -75.67, -11.43 84.53 1.45 34
5 11/23/2019 18:49:02 75.63,-112.47 96.04 11/23/2019 18:48:31 75.62,-112.55 96.04 2.38 31
6 11/23/2019 19:38:29 -75.67, 55.03 83.91 11/23/2019 19:39:11 -75.70, 55.01 83.89 2.54 42
7 11/26/2019 14:23:17 75.64, -46.08 96.62 11/26/2019 14:22:54 75.64, -46.13 96.62 1.34 23
8 11/26/2019 15:12:44 -75.69, 121.42 83.33 11/26/2019 15:13:34 -75.72, 121.45 83.30 3.50 50
9 11/29/2019 09:07:54 -75.17,-145.97 83.39 11/29/2019 09:06:47 -75.15,-148.57 83.32 74.07 67
10 11/29/2019 09:57:31 75.67, 20.29 97.15 11/29/2019 09:57:16 75.66, 20.29 97.15 0.61 15




NCC Satellite Simultaneous Nadir Overpasses (SNOs) Prediction Service
